• In Netherlands
  • List of Countries
  • For 7 days
  • Water Temperature
  • Satellite Maps
  • Weather Map
  • Weather Widgets
  • user-avatar
    Login

    Hourly Weather Durres

    Today, 20 February, Monday

    Time Temperature Precipitation Wind Pressure Humidity
    00:00 +7°C° 0 mm 2 mps 765 mmHg 90%
    01:00 +5°C° 0 mm 3 mps 765 mmHg 89%
    02:00 +5°C° 0 mm 3 mps 765 mmHg 89%
    03:00 +5°C° 0 mm 3 mps 765 mmHg 89%
    04:00 +5°C° 0 mm 3 mps 765 mmHg 89%
    05:00 +4°C° 0 mm 3 mps 765 mmHg 89%
    06:00 +4°C° 0 mm 3 mps 765 mmHg 89%
    07:00 +4°C° 0 mm 3 mps 765 mmHg 89%
    08:00 +7°C° 0 mm 2 mps 765 mmHg 80%
    09:00 +9°C° 0 mm 2 mps 765 mmHg 70%
    10:00 +10°C° 0 mm 2 mps 765 mmHg 61%
    11:00 +12°C° 0 mm 2 mps 765 mmHg 58%
    12:00 +12°C° 0 mm 2 mps 765 mmHg 56%
    13:00 +13°C° 0 mm 1 mps 765 mmHg 54%
    14:00 +12°C° 0 mm 1 mps 764 mmHg 57%
    15:00 +12°C° 0 mm 1 mps 764 mmHg 59%
    16:00 +12°C° 0 mm 1 mps 764 mmHg 62%
    17:00 +9°C° 0 mm 2 mps 764 mmHg 68%
    18:00 +8°C° 0 mm 2 mps 764 mmHg 74%
    19:00 +6°C° 0 mm 2 mps 764 mmHg 80%
    20:00 +6°C° 0 mm 2 mps 764 mmHg 80%
    21:00 +5°C° 0 mm 2 mps 765 mmHg 80%
    22:00 +5°C° 0 mm 2 mps 765 mmHg 80%
    23:00 +5°C° 0 mm 2 mps 765 mmHg 80%

    Tomorrow, 21 February, Tuesday

    Time Temperature Precipitation Wind Pressure Humidity
    00:00 +5°C° 0 mm 2 mps 765 mmHg 81%
    01:00 +4°C° 0 mm 2 mps 765 mmHg 81%
    02:00 +4°C° 0 mm 2 mps 765 mmHg 80%
    03:00 +4°C° 0 mm 2 mps 764 mmHg 80%
    04:00 +4°C° 0 mm 2 mps 764 mmHg 80%
    05:00 +4°C° 0 mm 2 mps 764 mmHg 79%
    06:00 +4°C° 0 mm 2 mps 764 mmHg 78%
    07:00 +4°C° 0 mm 2 mps 764 mmHg 78%
    08:00 +6°C° 0 mm 2 mps 764 mmHg 69%
    09:00 +8°C° 0 mm 2 mps 764 mmHg 60%
    10:00 +10°C° 0 mm 2 mps 764 mmHg 52%
    11:00 +11°C° 0 mm 3 mps 764 mmHg 51%
    12:00 +12°C° 0 mm 3 mps 764 mmHg 50%
    13:00 +12°C° 0 mm 3 mps 763 mmHg 49%
    14:00 +12°C° 0 mm 4 mps 763 mmHg 53%
    15:00 +11°C° 0 mm 4 mps 763 mmHg 58%
    16:00 +11°C° 0 mm 4 mps 763 mmHg 62%
    17:00 +8°C° 0 mm 4 mps 763 mmHg 69%
    18:00 +7°C° 0 mm 3 mps 763 mmHg 75%
    19:00 +5°C° 0 mm 3 mps 763 mmHg 82%
    20:00 +5°C° 0 mm 3 mps 764 mmHg 80%
    21:00 +5°C° 0 mm 3 mps 764 mmHg 79%
    22:00 +6°C° 0 mm 2 mps 764 mmHg 77%
    23:00 +5°C° 0 mm 2 mps 764 mmHg 76%

    Day after tomorrow, 22 February, Wednesday

    Time Temperature Precipitation Wind Pressure Humidity
    00:00 +5°C° 0 mm 2 mps 764 mmHg 74%
    01:00 +5°C° 0 mm 2 mps 764 mmHg 73%
    02:00 +5°C° 0 mm 2 mps 764 mmHg 73%
    03:00 +5°C° 0 mm 2 mps 764 mmHg 72%
    04:00 +5°C° 0 mm 2 mps 763 mmHg 72%
    05:00 +5°C° 0 mm 2 mps 764 mmHg 72%
    06:00 +5°C° 0 mm 2 mps 764 mmHg 72%
    07:00 +6°C° 0 mm 1 mps 764 mmHg 72%
    08:00 +9°C° 0 mm 1 mps 764 mmHg 66%
    09:00 +11°C° 0 mm 1 mps 764 mmHg 60%
    10:00 +14°C° 0 mm 1 mps 764 mmHg 55%
    11:00 +15°C° 0 mm 1 mps 764 mmHg 56%
    12:00 +15°C° 0 mm 1 mps 764 mmHg 57%
    13:00 +16°C° 0 mm 1 mps 763 mmHg 57%
    14:00 +15°C° 0 mm 1 mps 763 mmHg 61%
    15:00 +15°C° 0 mm 1 mps 763 mmHg 65%
    16:00 +14°C° 0 mm 1 mps 763 mmHg 69%
    17:00 +12°C° 0 mm 1 mps 763 mmHg 76%
    18:00 +11°C° 0 mm 1 mps 763 mmHg 83%
    19:00 +9°C° 0 mm 1 mps 764 mmHg 90%
    20:00 +7°C° 0 mm 2 mps 764 mmHg 90%
    21:00 +7°C° 0 mm 2 mps 764 mmHg 90%
    22:00 +7°C° 0 mm 3 mps 764 mmHg 90%
    23:00 +7°C° 0 mm 3 mps 764 mmHg 90%

    23 February, Thursday

    Time Temperature Precipitation Wind Pressure Humidity
    00:00 +7°C° 0 mm 3 mps 764 mmHg 90%
    01:00 +7°C° 0 mm 3 mps 764 mmHg 90%
    02:00 +5°C° 0 mm 3 mps 764 mmHg 89%
    03:00 +5°C° 0 mm 4 mps 763 mmHg 89%
    04:00 +5°C° 0 mm 4 mps 763 mmHg 89%
    05:00 +5°C° 0 mm 4 mps 763 mmHg 88%
    06:00 +5°C° 0 mm 4 mps 763 mmHg 87%
    07:00 +6°C° 0 mm 4 mps 764 mmHg 86%
    08:00 +8°C° 0 mm 4 mps 764 mmHg 77%
    09:00 +11°C° 0 mm 4 mps 764 mmHg 67%
    10:00 +14°C° 0 mm 4 mps 764 mmHg 57%
    11:00 +14°C° 0 mm 4 mps 763 mmHg 56%
    12:00 +15°C° 0 mm 4 mps 763 mmHg 54%
    13:00 +17°C° 0 mm 4 mps 762 mmHg 52%
    14:00 +15°C° 0 mm 5 mps 762 mmHg 57%
    15:00 +15°C° 0 mm 5 mps 762 mmHg 61%
    16:00 +14°C° 0 mm 6 mps 762 mmHg 65%
    17:00 +13°C° 0.1 mm 6 mps 762 mmHg 73%
    18:00 +10°C° 0.1 mm 6 mps 762 mmHg 81%
    19:00 +8°C° 0.1 mm 6 mps 762 mmHg 89%
    20:00 +8°C° 0.1 mm 6 mps 762 mmHg 90%
    21:00 +8°C° 0.1 mm 6 mps 763 mmHg 90%
    22:00 +8°C° 0.1 mm 6 mps 763 mmHg 91%
    23:00 +8°C° 0.1 mm 6 mps 763 mmHg 90%

    24 February, Friday

    Time Temperature Precipitation Wind Pressure Humidity
    00:00 +8°C° 0.1 mm 6 mps 762 mmHg 90%
    01:00 +8°C° 0.1 mm 6 mps 762 mmHg 89%
    02:00 +8°C° 0.1 mm 6 mps 762 mmHg 89%
    03:00 +8°C° 0.1 mm 6 mps 762 mmHg 89%
    04:00 +8°C° 0.1 mm 6 mps 761 mmHg 89%
    05:00 +8°C° 0 mm 6 mps 761 mmHg 88%
    06:00 +8°C° 0 mm 6 mps 761 mmHg 87%
    07:00 +8°C° 0 mm 6 mps 761 mmHg 86%
    08:00 +10°C° 0 mm 7 mps 761 mmHg 78%
    09:00 +12°C° 0 mm 7 mps 761 mmHg 71%
    10:00 +15°C° 0 mm 7 mps 761 mmHg 63%
    11:00 +16°C° 0 mm 8 mps 761 mmHg 61%
    12:00 +17°C° 0 mm 8 mps 760 mmHg 59%
    13:00 +18°C° 0 mm 8 mps 760 mmHg 57%
    14:00 +17°C° 0 mm 9 mps 760 mmHg 61%
    15:00 +17°C° 0 mm 10 mps 759 mmHg 65%
    16:00 +17°C° 0 mm 10 mps 759 mmHg 68%
    17:00 +16°C° 0.4 mm 10 mps 759 mmHg 74%
    18:00 +14°C° 0.4 mm 10 mps 759 mmHg 79%
    19:00 +12°C° 0.4 mm 10 mps 759 mmHg 85%
    20:00 +12°C° 0.4 mm 10 mps 759 mmHg 86%
    21:00 +12°C° 0.4 mm 10 mps 759 mmHg 86%
    22:00 +12°C° 0.4 mm 10 mps 758 mmHg 87%
    23:00 +12°C° 0.5 mm 10 mps 758 mmHg 87%

    25 February, Saturday

    Time Temperature Precipitation Wind Pressure Humidity
    00:00 +12°C° 0.5 mm 10 mps 758 mmHg 87%
    01:00 +12°C° 0.5 mm 10 mps 757 mmHg 87%
    02:00 +12°C° 0.2 mm 10 mps 757 mmHg 87%
    03:00 +12°C° 0.2 mm 10 mps 757 mmHg 88%
    04:00 +12°C° 0.2 mm 10 mps 757 mmHg 88%
    05:00 +12°C° 0 mm 9 mps 757 mmHg 88%
    06:00 +12°C° 0 mm 9 mps 758 mmHg 87%
    07:00 +12°C° 0 mm 8 mps 758 mmHg 87%
    08:00 +15°C° 0 mm 8 mps 759 mmHg 81%
    09:00 +16°C° 0 mm 7 mps 759 mmHg 76%
    10:00 +19°C° 0 mm 6 mps 760 mmHg 70%
    11:00 +20°C° 0 mm 6 mps 760 mmHg 67%
    12:00 +20°C° 0 mm 5 mps 760 mmHg 65%
    13:00 +21°C° 0 mm 5 mps 760 mmHg 62%
    14:00 +21°C° 0 mm 5 mps 760 mmHg 65%
    15:00 +20°C° 0 mm 4 mps 760 mmHg 68%
    16:00 +20°C° 0 mm 4 mps 760 mmHg 71%
    17:00 +18°C° 0 mm 4 mps 760 mmHg 77%
    18:00 +15°C° 0 mm 4 mps 760 mmHg 83%
    19:00 +14°C° 0 mm 3 mps 761 mmHg 89%
    20:00 +13°C° 0 mm 3 mps 761 mmHg 89%
    21:00 +13°C° 0 mm 3 mps 761 mmHg 89%
    22:00 +13°C° 0 mm 3 mps 761 mmHg 88%
    23:00 +13°C° 0 mm 3 mps 761 mmHg 88%
    Show more